Погода в Файли

Великобритания     54°12′44″N   0°17′19″E
темп.,
°C
ветер,
м/с
пор.,
м/с
влажн.,
%
обл.,
%
осадки,
мм/ч
давл.,
гПа
погр.,
м
22 апреля, чт
чт2201:00+5ссз22615 0.0 1027287
04:00+4з22685 0.0 1027133
07:00+4зюз336871 0.0 1028131
10:00+7зюз335311 0.0 1028323
13:00+9ююв335174 0.0 1028209
16:00+8юв546523 0.0 1028268
19:00+7юв45697 0.0 1028160
22:00+7ю457396 0.0 1029124
23 апреля, пт
пт2301:00+6юз457485 0.0 1029115
04:00+6зюз3469100 0.0 102999
07:00+6зюз3364100 0.0 102992
10:00+8ю336534 0.0 1030165
13:00+9юв55737 0.0 1030221
16:00+8ююв777283 0.0 1029194
19:00+8ююв6871100 0.0 1029131
22:00+8ю4570100 0.0 1030122
24 апреля, сб
сб2401:00+7ююз3462100 0.0 1029105
04:00+7юз2265100 0.0 102982
07:00+7ююз2268100 0.0 103073
10:00+8вюв2264100 0.0 1031167
13:00+8в4469100 0.0 1031267
16:00+8в55754 0.0 1031405
19:00+7всв55790 0.0 1031491
22:00+7всв44783 0.0 1032519
25 апреля, вс
вс2501:00+6всв33765 0.0 1032507
04:00+6св337850 0.0 1032484
07:00+6св3477100 0.0 1031561
10:00+6св337194 0.0 1031526
13:00+7всв33725 0.0 1031434
16:00+7всв33721 0.0 1030424
19:00+7в33720 0.0 1028357
22:00+6юв22740 0.0 1028283
26 апреля, пн
пн2601:00+5юз3380100 0.0 1026167
04:00+5юз4477100 0.0 1024147
07:00+5юз4676100 0.0 1022185
10:00+6юз4580100 1.3 1021282
13:00+7ю6679100 2.9 1019382
16:00+7ююв6687100 0.3 1016310
19:00+6юв7791100 3.8 1015327
22:00+6юв6688100 1.3 1016423